Time,TemperatureF,DewpointF,PressureIn,WindDirection,WindDirectionDegrees,WindSpeedMPH,WindSpeedGustMPH,Humidity,HourlyPrecipIn,Conditions,Clouds,dailyrainin,SoftwareType,DateUTC
2013-02-20 08:30:00,16.2,9.0,29.11,North,0,2.5,2.5,73,0.00,,,0.00,WUHU216HW,2013-02-20 13:30:00,
2013-02-20 08:35:00,16.2,9.0,29.11,NW,315,2.7,2.7,73,0.00,,,0.00,WUHU216HW,2013-02-20 13:35:00,
2013-02-20 09:00:00,17.3,9.7,29.12,West,270,2.9,2.9,72,0.00,,,0.00,WUHU216HW,2013-02-20 14:00:00,
2013-02-20 09:05:00,17.3,9.7,29.12,West,270,2.9,2.9,72,0.00,,,0.00,WUHU216HW,2013-02-20 14:05:00,
2013-02-20 09:30:00,17.8,10.0,29.12,WNW,293,1.6,1.6,71,0.00,,,0.00,WUHU216HW,2013-02-20 14:30:00,
2013-02-20 09:35:00,17.8,10.0,29.12,WNW,293,1.6,1.6,71,0.00,,,0.00,WUHU216HW,2013-02-20 14:35:00,
2013-02-20 10:00:00,19.1,11.2,29.12,WNW,293,2.5,2.5,71,0.00,,,0.00,WUHU216HW,2013-02-20 15:00:00,
2013-02-20 10:05:00,19.1,11.2,29.12,WNW,293,2.5,2.5,71,0.00,,,0.00,WUHU216HW,2013-02-20 15:05:00,
2013-02-20 10:30:00,19.8,10.5,29.13,West,270,1.1,1.1,67,0.00,,,0.00,WUHU216HW,2013-02-20 15:30:00,
2013-02-20 10:35:00,19.8,10.5,29.13,West,270,1.1,1.1,67,0.00,,,0.00,WUHU216HW,2013-02-20 15:35:00,
2013-02-20 11:00:00,19.8,9.8,29.14,WNW,293,9.8,9.8,65,0.00,,,0.00,WUHU216HW,2013-02-20 16:00:00,
2013-02-20 11:05:00,19.8,9.8,29.14,WNW,293,9.8,9.8,65,0.00,,,0.00,WUHU216HW,2013-02-20 16:05:00,
2013-02-20 11:30:00,20.5,10.2,29.14,ENE,68,5.6,5.6,64,0.00,,,0.00,WUHU216HW,2013-02-20 16:30:00,
2013-02-20 11:35:00,20.5,10.2,29.14,ENE,68,5.6,5.6,64,0.00,,,0.00,WUHU216HW,2013-02-20 16:35:00,
2013-02-20 12:00:00,20.9,11.3,29.15,WNW,293,3.4,3.4,66,0.00,,,0.00,WUHU216HW,2013-02-20 17:00:00,
2013-02-20 12:05:00,20.9,11.3,29.15,WNW,293,3.4,3.4,66,0.00,,,0.00,WUHU216HW,2013-02-20 17:05:00,
2013-02-20 12:30:00,21.2,11.6,29.16,NNW,338,5.6,5.6,66,0.00,,,0.00,WUHU216HW,2013-02-20 17:30:00,
2013-02-20 12:35:00,21.2,11.6,29.16,NNW,338,5.6,5.6,66,0.00,,,0.00,WUHU216HW,2013-02-20 17:35:00,
2013-02-20 13:00:00,21.6,12.6,29.16,NW,315,4.3,4.3,68,0.00,,,0.00,WUHU216HW,2013-02-20 18:00:00,
2013-02-20 13:05:00,21.6,12.6,29.16,NW,315,4.3,4.3,68,0.00,,,0.00,WUHU216HW,2013-02-20 18:05:00,
2013-02-20 13:30:00,22.0,12.6,29.17,NW,315,5.1,5.1,67,0.00,,,0.00,WUHU216HW,2013-02-20 18:30:00,
2013-02-20 13:35:00,22.0,12.6,29.17,NW,315,5.1,5.1,67,0.00,,,0.00,WUHU216HW,2013-02-20 18:35:00,
2013-02-20 14:00:00,22.1,12.4,29.17,NW,315,3.4,3.4,66,0.00,,,0.00,WUHU216HW,2013-02-20 19:00:00,
2013-02-20 14:05:00,22.1,12.4,29.17,NW,315,3.4,3.4,66,0.00,,,0.00,WUHU216HW,2013-02-20 19:05:00,
2013-02-20 14:30:00,22.0,12.2,29.18,WNW,293,5.1,5.1,66,0.00,,,0.00,WUHU216HW,2013-02-20 19:30:00,
2013-02-20 14:35:00,22.0,12.2,29.18,WNW,293,5.1,5.1,66,0.00,,,0.00,WUHU216HW,2013-02-20 19:35:00,
2013-02-20 15:00:00,22.1,12.1,29.18,NW,315,2.7,2.7,65,0.00,,,0.00,WUHU216HW,2013-02-20 20:00:00,
2013-02-20 15:05:00,22.1,12.1,29.18,NW,315,2.7,2.7,65,0.00,,,0.00,WUHU216HW,2013-02-20 20:05:00,
2013-02-20 15:30:00,22.5,12.8,29.19,NW,315,3.4,3.4,66,0.00,,,0.00,WUHU216HW,2013-02-20 20:30:00,
2013-02-20 15:35:00,22.5,12.8,29.19,NW,315,3.4,3.4,66,0.00,,,0.00,WUHU216HW,2013-02-20 20:35:00,
2013-02-20 16:00:00,22.3,12.6,29.20,WNW,293,4.0,4.0,66,0.00,,,0.00,WUHU216HW,2013-02-20 21:00:00,
2013-02-20 16:05:00,22.3,12.6,29.20,WNW,293,4.0,4.0,66,0.00,,,0.00,WUHU216HW,2013-02-20 21:05:00,
2013-02-20 16:30:00,22.0,12.6,29.22,NW,315,4.0,4.0,67,0.00,,,0.00,WUHU216HW,2013-02-20 21:30:00,
2013-02-20 16:35:00,22.0,12.6,29.22,NW,315,4.0,4.0,67,0.00,,,0.00,WUHU216HW,2013-02-20 21:35:00,
2013-02-20 17:00:00,22.0,12.6,29.23,NW,315,4.7,4.7,67,0.00,,,0.00,WUHU216HW,2013-02-20 22:00:00,
2013-02-20 17:05:00,22.0,12.6,29.23,NW,315,4.7,4.7,67,0.00,,,0.00,WUHU216HW,2013-02-20 22:05:00,
2013-02-20 18:30:00,21.1,14.1,29.23,West,270,1.8,1.8,74,0.00,,,0.00,WUHU216HW,2013-02-20 23:30:00,
2013-02-20 18:35:00,21.1,14.1,29.23,West,270,1.8,1.8,74,0.00,,,0.00,WUHU216HW,2013-02-20 23:35:00,
2013-02-20 19:00:00,21.1,14.3,29.23,West,270,1.8,1.8,75,0.00,,,0.00,WUHU216HW,2013-02-21 00:00:00,
2013-02-20 19:05:00,21.1,14.3,29.23,West,270,1.8,1.8,75,0.00,,,0.00,WUHU216HW,2013-02-21 00:05:00,
2013-02-20 19:10:00,21.1,14.3,29.23,West,270,1.8,1.8,75,0.00,,,0.00,WUHU216HW,2013-02-21 00:10:00,
2013-02-20 20:00:00,21.2,13.6,29.25,WSW,248,2.9,2.9,72,0.00,,,0.00,WUHU216HW,2013-02-21 01:00:00,
2013-02-20 20:05:00,21.2,13.6,29.25,WSW,248,2.9,2.9,72,0.00,,,0.00,WUHU216HW,2013-02-21 01:05:00,
2013-02-20 21:00:00,21.2,14.5,29.25,NW,315,3.4,3.4,75,0.00,,,0.00,WUHU216HW,2013-02-21 02:00:00,
2013-02-20 21:05:00,21.2,14.5,29.25,NW,315,3.4,3.4,75,0.00,,,0.00,WUHU216HW,2013-02-21 02:05:00,
2013-02-20 23:00:00,20.2,13.7,29.27,WNW,293,4.5,4.5,76,0.00,,,0.00,WUHU216HW,2013-02-21 04:00:00,
2013-02-20 23:05:00,20.2,13.7,29.27,WNW,293,4.5,4.5,76,0.00,,,0.00,WUHU216HW,2013-02-21 04:05:00,